Location: *
(37.5724°S, 58.0067°E)
Time: 11:16:42
(UTC+00:00)

NOAA 11 - Pass Details

Date: 26 September 2020
Orbit: 832 x 850 km, 98.4° (Epoch: 29 October)

Event Time Altitude Azimuth Distance (km) Brightness Sun altitude
Rises 14:49:08 0° 165° (SSE) 3,437 7.3 -8.9°
Reaches altitude 10° 14:51:32 10° 163° (SSE) 2,497 6.6 -9.4°
Maximum altitude 14:57:05 73° 78° (ENE) 897 4.2 -10.5°
Drops below altitude 10° 15:02:35 10° 353° (N) 2,475 6.6 -11.5°
Sets 15:04:57 0° 351° (N) 3,403 7.3 -12.0°
